Torna al catalogo

DELTA 1 DEB

AttivoLEO
NORAD 10837·DEBRIS·🇺🇸 United States

Lanciato Jul 29, 1976 da Vandenberg Space Force Base

Loading…

Prossimi Passaggi (prossime 24 ore)

TLE

AggiornatoSource: Space-Track

Epoca: Sep 14, 2026, 06:13 UTC

1 10837U 76077CH  26257.25945341 -.00000014  00000-0  30724-3 0  9996
2 10837 102.3226 180.5020 0200903  27.8408 125.6123 12.04541017204344

Traccia DELTA 1 DEB in tempo reale con AllMySat

Download on the App Store